Location: Rowland
(34.5359°N, 79.2929°W)
Time: 20:10:11
(UTC+00:00)

Transit 2A - Pass Details

Date: 12 October 2022
Orbit: 598 x 959 km, 66.7° (Epoch: 03 December)

Event Time Altitude Azimuth Distance (km) Brightness Sun altitude
Rises 02:06:27 0° 222° (SW) 2,931 - -41.1°
Reaches altitude 10° 02:08:52 10° 230° (SW) 1,989 - -41.5°
Maximum altitude 02:13:03 40° 300° (WNW) 896 - -42.3°
Drops below altitude 10° 02:17:07 10° 11° (N) 1,939 - -43.1°
Sets 02:19:28 0° 19° (NNE) 2,848 - -43.5°
